MFX19K EICK-EGBB

Flight info

Callsign MFX19K
Flight time N/A
Altitude 33000
Route TISMO1N TISMO DCT BOFUM Q37 MALUD
Aircraft B739/M-SDE2E3FGHIRWXY/LB1

Departure

Time 2026-05-05 10:36
Airport Cork International Airport (EICK)

Arrival

Time N/A
Airport Birmingham Airport (EGBB)
Time Latitude Longitude Altitude Speed Heading
2026-05-05 10:16 51.84575 -8.49020 503 ft 0 kts 69°
2026-05-05 10:19 51.84574 -8.49024 503 ft 2 kts 70°
2026-05-05 10:19 51.84569 -8.49050 503 ft 3 kts 89°
2026-05-05 10:19 51.84572 -8.49079 503 ft 3 kts 127°
2026-05-05 10:19 51.84585 -8.49097 503 ft 2 kts 158°
2026-05-05 10:20 51.84589 -8.49100 503 ft 1 kts 160°
2026-05-05 10:29 51.84588 -8.49100 503 ft 0 kts 160°
2026-05-05 10:29 51.84581 -8.49095 503 ft 2 kts 160°
2026-05-05 10:29 51.84563 -8.49085 503 ft 3 kts 160°
2026-05-05 10:29 51.84536 -8.49069 503 ft 5 kts 160°
2026-05-05 10:30 51.84501 -8.49048 503 ft 6 kts 160°
2026-05-05 10:30 51.84459 -8.49024 503 ft 7 kts 160°
2026-05-05 10:30 51.84410 -8.48994 503 ft 8 kts 159°
2026-05-05 10:30 51.84357 -8.49002 503 ft 8 kts 223°
2026-05-05 10:31 51.84326 -8.49086 503 ft 9 kts 242°
2026-05-05 10:31 51.84292 -8.49172 503 ft 9 kts 219°
2026-05-05 10:31 51.84228 -8.49168 503 ft 10 kts 164°
2026-05-05 10:31 51.84162 -8.49131 503 ft 11 kts 161°
2026-05-05 10:32 51.84089 -8.49090 503 ft 11 kts 161°
2026-05-05 10:32 51.84016 -8.49046 503 ft 11 kts 160°
2026-05-05 10:32 51.83941 -8.49001 503 ft 11 kts 160°
2026-05-05 10:32 51.83868 -8.48957 503 ft 11 kts 160°
2026-05-05 10:33 51.83795 -8.48914 503 ft 12 kts 160°
2026-05-05 10:33 51.83715 -8.48867 503 ft 13 kts 160°
2026-05-05 10:33 51.83623 -8.48813 503 ft 15 kts 160°
2026-05-05 10:33 51.83519 -8.48752 503 ft 17 kts 160°
2026-05-05 10:34 51.83405 -8.48684 503 ft 18 kts 160°
2026-05-05 10:34 51.83319 -8.48625 503 ft 10 kts 142°
2026-05-05 10:34 51.83279 -8.48537 503 ft 10 kts 146°
2026-05-05 10:34 51.83250 -8.48596 503 ft 10 kts 312°
2026-05-05 10:35 51.83315 -8.48634 503 ft 12 kts 341°
2026-05-05 10:35 51.83618 -8.48815 503 ft 88 kts 341°
2026-05-05 10:35 51.84445 -8.49319 561 ft 155 kts 339°
2026-05-05 10:35 51.85517 -8.49980 1066 ft 178 kts 339°
2026-05-05 10:36 51.86742 -8.50674 1918 ft 190 kts 347°
2026-05-05 10:36 51.88050 -8.50857 3008 ft 186 kts
2026-05-05 10:36 51.89318 -8.50379 3725 ft 194 kts 20°
2026-05-05 10:36 51.90575 -8.49284 4037 ft 215 kts 32°
2026-05-05 10:37 51.91694 -8.47541 4444 ft 236 kts 51°
2026-05-05 10:37 51.92688 -8.45230 4788 ft 259 kts 52°
2026-05-05 10:37 51.93737 -8.42810 5558 ft 265 kts 52°
2026-05-05 10:37 51.94828 -8.40365 6317 ft 272 kts 51°
2026-05-05 10:38 51.95969 -8.37875 7047 ft 277 kts 51°
2026-05-05 10:38 51.97133 -8.35382 7885 ft 278 kts 50°
2026-05-05 10:38 51.98317 -8.32882 8713 ft 280 kts 50°
2026-05-05 10:38 51.99515 -8.30373 9529 ft 283 kts 50°
2026-05-05 10:39 52.00738 -8.27826 10241 ft 288 kts 50°
2026-05-05 10:39 52.02011 -8.25185 10564 ft 309 kts 50°
2026-05-05 10:39 52.03382 -8.22344 10747 ft 331 kts 50°
2026-05-05 10:39 52.04851 -8.19300 10934 ft 352 kts 50°
2026-05-05 10:40 52.06361 -8.16166 11426 ft 361 kts 50°
2026-05-05 10:40 52.07918 -8.12928 12118 ft 365 kts 50°
2026-05-05 10:40 52.09484 -8.09670 12831 ft 368 kts 50°
2026-05-05 10:40 52.11065 -8.06382 13516 ft 371 kts 51°
2026-05-05 10:41 52.12664 -8.03051 14149 ft 375 kts 50°
2026-05-05 10:41 52.14313 -7.99740 14745 ft 378 kts 47°
2026-05-05 10:41 52.16093 -7.96577 15347 ft 380 kts 45°
2026-05-05 10:41 52.17937 -7.93461 15943 ft 384 kts 44°
2026-05-05 10:42 52.21696 -7.87176 17062 ft 391 kts 45°
2026-05-05 10:42 52.23601 -7.83967 17610 ft 395 kts 44°
2026-05-05 10:42 52.25515 -7.80720 18166 ft 399 kts 45°
2026-05-05 10:43 52.27438 -7.77435 18689 ft 402 kts 45°
2026-05-05 10:43 52.29373 -7.74113 19170 ft 405 kts 45°
2026-05-05 10:43 52.31322 -7.70759 19657 ft 409 kts 45°
2026-05-05 10:43 52.33286 -7.67370 20128 ft 412 kts 45°
2026-05-05 10:44 52.35260 -7.63957 20612 ft 415 kts 45°
2026-05-05 10:44 52.37253 -7.60506 21075 ft 419 kts 45°
2026-05-05 10:44 52.39257 -7.57032 21544 ft 422 kts 45°
2026-05-05 10:44 52.41279 -7.53522 22005 ft 425 kts 45°
2026-05-05 10:45 52.43312 -7.49987 22457 ft 428 kts 46°
2026-05-05 10:45 52.45361 -7.46421 22906 ft 431 kts 46°
2026-05-05 10:45 52.46729 -7.44037 23129 ft 436 kts 45°
2026-05-05 10:45 52.48811 -7.40405 23622 ft 437 kts 46°
2026-05-05 10:46 52.50898 -7.36758 23983 ft 440 kts 46°
2026-05-05 10:46 52.52997 -7.33082 24380 ft 442 kts 46°
2026-05-05 10:46 52.55793 -7.28177 24836 ft 447 kts 46°
2026-05-05 10:46 52.57229 -7.25656 25057 ft 449 kts 46°
2026-05-05 10:47 52.59367 -7.21896 25428 ft 451 kts 46°
2026-05-05 10:47 52.61513 -7.18116 25813 ft 453 kts 46°
2026-05-05 10:47 52.63669 -7.14313 26161 ft 455 kts 46°
2026-05-05 10:47 52.65832 -7.10492 26506 ft 458 kts 46°
2026-05-05 10:48 52.68008 -7.06642 26843 ft 460 kts 46°
2026-05-05 10:48 52.70194 -7.02769 27175 ft 463 kts 46°
2026-05-05 10:48 52.72385 -6.98879 27515 ft 465 kts 46°
2026-05-05 10:48 52.74595 -6.94951 27832 ft 467 kts 46°
2026-05-05 10:49 52.76809 -6.91007 28180 ft 469 kts 46°
2026-05-05 10:49 52.79000 -6.87101 28460 ft 472 kts 46°
2026-05-05 10:49 52.81261 -6.83061 28853 ft 472 kts 46°
2026-05-05 10:49 52.83493 -6.79068 29165 ft 475 kts 46°
2026-05-05 10:50 52.85712 -6.75092 29466 ft 477 kts 46°
2026-05-05 10:50 52.87955 -6.71064 29905 ft 476 kts 46°
2026-05-05 10:50 52.90191 -6.67043 30373 ft 473 kts 46°
2026-05-05 10:50 52.92412 -6.63043 30776 ft 471 kts 46°
2026-05-05 10:51 52.94629 -6.59042 31134 ft 471 kts 46°
2026-05-05 10:51 52.96835 -6.55057 31564 ft 468 kts 46°
2026-05-05 10:51 52.99030 -6.51084 31949 ft 466 kts 47°
2026-05-05 10:51 53.01220 -6.47115 32290 ft 466 kts 46°
2026-05-05 10:52 53.03408 -6.43142 32596 ft 466 kts 46°
2026-05-05 10:52 53.05591 -6.39172 32918 ft 465 kts 46°
2026-05-05 10:52 53.07769 -6.35205 33081 ft 464 kts 47°
2026-05-05 10:53 53.12119 -6.27260 33163 ft 462 kts 47°
2026-05-05 10:53 53.16462 -6.19304 33091 ft 466 kts 47°
2026-05-05 10:54 53.20836 -6.11268 33089 ft 469 kts 47°
2026-05-05 10:54 53.25223 -6.03177 33078 ft 471 kts 47°
2026-05-05 10:55 53.29603 -5.95074 33076 ft 471 kts 47°
2026-05-05 10:55 53.34101 -5.87162 33057 ft 468 kts 36°
2026-05-05 10:55 53.36894 -5.84465 33084 ft 462 kts 19°
2026-05-05 10:56 53.39994 -5.83208 33073 ft 458 kts
2026-05-05 10:56 53.43142 -5.83486 33085 ft 452 kts 345°
2026-05-05 10:56 53.46034 -5.85224 33063 ft 433 kts 328°
2026-05-05 10:56 53.48404 -5.88126 33082 ft 412 kts 316°
2026-05-05 10:57 53.50426 -5.91395 33025 ft 397 kts 313°
2026-05-05 10:57 53.52321 -5.94663 32855 ft 385 kts 312°
2026-05-05 10:57 53.54146 -5.97873 32702 ft 374 kts 310°
2026-05-05 10:57 53.55583 -6.01378 32504 ft 359 kts 290°
2026-05-05 10:58 53.56311 -6.05386 32429 ft 362 kts 281°
2026-05-05 10:58 53.57236 -6.13588 32193 ft 351 kts 279°
2026-05-05 10:58 53.57651 -6.17611 31764 ft 349 kts 278°
2026-05-05 10:59 53.57951 -6.21590 31284 ft 347 kts 266°
2026-05-05 10:59 53.57475 -6.25506 30888 ft 340 kts 245°
2026-05-05 10:59 53.56167 -6.28765 30527 ft 340 kts 223°
2026-05-05 10:59 53.54155 -6.30994 30382 ft 354 kts 204°
2026-05-05 11:00 53.51841 -6.32434 30428 ft 353 kts 200°
2026-05-05 11:00 53.47272 -6.34804 30113 ft 336 kts 199°
2026-05-05 11:00 53.45043 -6.35918 29717 ft 333 kts 198°
2026-05-05 11:01 53.42833 -6.37010 29275 ft 330 kts 198°
2026-05-05 11:01 53.40635 -6.38091 28823 ft 328 kts 198°
2026-05-05 11:01 53.38451 -6.39161 28406 ft 326 kts 198°
2026-05-05 11:01 53.36283 -6.40221 28005 ft 324 kts 198°
2026-05-05 11:02 53.34123 -6.41274 27595 ft 322 kts 198°
2026-05-05 11:02 53.31979 -6.42318 27191 ft 320 kts 198°
2026-05-05 11:02 53.29845 -6.43356 26790 ft 319 kts 198°
2026-05-05 11:02 53.27721 -6.44388 26402 ft 317 kts 198°
2026-05-05 11:03 53.25610 -6.45411 26019 ft 315 kts 198°
2026-05-05 11:03 53.23511 -6.46428 25634 ft 313 kts 198°
2026-05-05 11:03 53.21422 -6.47439 25277 ft 311 kts 198°
2026-05-05 11:03 53.19388 -6.48418 25285 ft 300 kts 198°
2026-05-05 11:04 53.17339 -6.49404 25159 ft 314 kts 198°
2026-05-05 11:04 53.15188 -6.50448 25085 ft 330 kts 198°
2026-05-05 11:04 53.12888 -6.51158 24927 ft 343 kts 179°
2026-05-05 11:04 53.10571 -6.50145 24686 ft 351 kts 152°
2026-05-05 11:05 53.08748 -6.47474 24403 ft 355 kts 126°
2026-05-05 11:05 53.07780 -6.43686 23897 ft 363 kts 98°
2026-05-05 11:05 53.07890 -6.39527 23425 ft 361 kts 75°
2026-05-05 11:05 53.08760 -6.35638 22901 ft 358 kts 62°
2026-05-05 11:06 53.10017 -6.32114 22327 ft 352 kts 54°
2026-05-05 11:06 53.11477 -6.28827 21516 ft 354 kts 50°
2026-05-05 11:06 53.13055 -6.25663 20757 ft 356 kts 48°
2026-05-05 11:06 53.14686 -6.22567 20009 ft 357 kts 47°
2026-05-05 11:07 53.16323 -6.19533 19289 ft 357 kts 46°
2026-05-05 11:07 53.17991 -6.16469 18575 ft 357 kts 46°
2026-05-05 11:07 53.19658 -6.13412 17800 ft 356 kts 46°
2026-05-05 11:07 53.21325 -6.10351 16999 ft 356 kts 46°
2026-05-05 11:08 53.22983 -6.07300 16226 ft 354 kts 46°
2026-05-05 11:08 53.24633 -6.04259 15471 ft 353 kts 46°
2026-05-05 11:08 53.26275 -6.01227 14724 ft 351 kts 45°
2026-05-05 11:08 53.27907 -5.98209 14008 ft 349 kts 46°
2026-05-05 11:09 53.29527 -5.95211 13221 ft 346 kts 46°
2026-05-05 11:09 53.31133 -5.92233 12438 ft 343 kts 46°
2026-05-05 11:09 53.32727 -5.89273 11663 ft 341 kts 46°
2026-05-05 11:09 53.34304 -5.86340 10923 ft 338 kts 46°
2026-05-05 11:10 53.35869 -5.83430 10185 ft 335 kts 46°
2026-05-05 11:10 53.37420 -5.80540 9419 ft 332 kts 46°
2026-05-05 11:10 53.38944 -5.77697 8867 ft 323 kts 47°
2026-05-05 11:10 53.40422 -5.74935 8368 ft 313 kts 46°
2026-05-05 11:11 53.41854 -5.72257 7876 ft 305 kts 46°
2026-05-05 11:11 53.43244 -5.69635 7388 ft 297 kts 47°
2026-05-05 11:11 53.44575 -5.67030 6923 ft 290 kts 48°
2026-05-05 11:11 53.45855 -5.64496 6646 ft 278 kts 48°
2026-05-05 11:12 53.47071 -5.62071 6379 ft 266 kts 48°
2026-05-05 11:12 53.48236 -5.59738 6111 ft 255 kts 48°
2026-05-05 11:12 53.49356 -5.57492 5831 ft 246 kts 47°
2026-05-05 11:12 53.50265 -5.55127 5528 ft 241 kts 70°
2026-05-05 11:13 53.50522 -5.52399 5287 ft 232 kts 76°
2026-05-05 11:13 53.51173 -5.50043 4990 ft 218 kts 43°
2026-05-05 11:13 53.52372 -5.48544 4774 ft 215 kts 30°
2026-05-05 11:13 53.53658 -5.47244 4499 ft 215 kts 29°
2026-05-05 11:14 53.54999 -5.46172 4219 ft 214 kts
2026-05-05 11:14 53.56444 -5.46385 3962 ft 209 kts 341°
2026-05-05 11:14 53.57764 -5.47293 3717 ft 207 kts 337°
2026-05-05 11:14 53.59033 -5.48394 3439 ft 206 kts 321°
2026-05-05 11:15 53.59809 -5.50374 3159 ft 206 kts 284°
2026-05-05 11:15 53.59715 -5.52745 2950 ft 209 kts 249°
2026-05-05 11:15 53.58940 -5.54838 2792 ft 212 kts 238°
2026-05-05 11:15 53.58062 -5.56824 2613 ft 212 kts 226°
2026-05-05 11:16 53.56811 -5.58153 2553 ft 216 kts 207°
2026-05-05 11:16 53.55461 -5.59294 2516 ft 216 kts 208°
2026-05-05 11:16 53.54136 -5.60437 2507 ft 212 kts 208°
2026-05-05 11:16 53.52831 -5.61564 2416 ft 210 kts 209°
2026-05-05 11:17 53.51528 -5.62702 2509 ft 214 kts 208°
2026-05-05 11:17 53.50202 -5.63850 2511 ft 215 kts 210°
2026-05-05 11:17 53.48904 -5.65093 2498 ft 214 kts 212°
2026-05-05 11:17 53.47628 -5.66372 2503 ft 213 kts 215°
2026-05-05 11:18 53.46578 -5.68050 2509 ft 205 kts 233°
2026-05-05 11:18 53.45721 -5.69883 2511 ft 194 kts 238°
2026-05-05 11:18 53.44983 -5.71737 2526 ft 189 kts 238°
2026-05-05 11:18 53.44267 -5.73529 2490 ft 180 kts 239°
2026-05-05 11:19 53.43580 -5.75204 2498 ft 173 kts 238°
2026-05-05 11:19 53.42965 -5.76919 2497 ft 170 kts 257°
2026-05-05 11:19 53.42623 -5.78771 2514 ft 166 kts 254°
2026-05-05 11:19 53.42211 -5.80594 2541 ft 168 kts 256°
2026-05-05 11:20 53.42040 -5.82500 2529 ft 162 kts 270°
2026-05-05 11:20 53.41953 -5.84335 2518 ft 160 kts 270°
2026-05-05 11:20 53.41862 -5.86184 2518 ft 164 kts 269°
2026-05-05 11:20 53.41780 -5.88119 2420 ft 168 kts 270°
2026-05-05 11:21 53.41651 -5.90085 2506 ft 167 kts 263°
2026-05-05 11:21 53.41451 -5.91972 2511 ft 165 kts 263°
2026-05-05 11:21 53.41254 -5.93800 2485 ft 156 kts 268°
2026-05-05 11:21 53.41226 -5.95529 2489 ft 144 kts 274°
2026-05-05 11:22 53.41214 -5.97221 2516 ft 145 kts 274°
2026-05-05 11:22 53.41197 -5.98915 2496 ft 145 kts 274°
2026-05-05 11:22 53.41200 -6.00623 2493 ft 146 kts 276°
2026-05-05 11:22 53.41273 -6.02300 2489 ft 143 kts 278°
2026-05-05 11:23 53.41360 -6.03956 2494 ft 144 kts 278°
2026-05-05 11:23 53.41449 -6.05618 2495 ft 141 kts 278°
2026-05-05 11:23 53.41489 -6.07394 2614 ft 163 kts 274°
2026-05-05 11:23 53.41461 -6.09208 2646 ft 151 kts 271°
2026-05-05 11:24 53.41394 -6.10952 2262 ft 149 kts 271°
2026-05-05 11:24 53.41367 -6.12686 1864 ft 148 kts 273°
2026-05-05 11:24 53.41360 -6.14362 1577 ft 145 kts 275°
2026-05-05 11:24 53.41377 -6.16181 1585 ft 156 kts 274°
2026-05-05 11:25 53.41448 -6.18016 1495 ft 159 kts 280°
2026-05-05 11:25 53.41624 -6.19793 1217 ft 152 kts 285°
2026-05-05 11:25 53.41844 -6.21577 692 ft 157 kts 279°
2026-05-05 11:25 53.41915 -6.23345 434 ft 147 kts 275°
2026-05-05 11:26 53.42001 -6.25066 286 ft 148 kts 281°
2026-05-05 11:26 53.42128 -6.26751 231 ft 142 kts 278°
2026-05-05 11:26 53.42200 -6.28034 234 ft 48 kts 272°
2026-05-05 11:26 53.42212 -6.28432 237 ft 33 kts 275°
2026-05-05 11:27 53.42223 -6.28638 238 ft 16 kts 275°
2026-05-05 11:27 53.42234 -6.28819 236 ft 15 kts 276°
2026-05-05 11:27 53.42244 -6.28992 234 ft 15 kts 281°
2026-05-05 11:27 53.42331 -6.29072 226 ft 16 kts 358°
2026-05-05 11:28 53.42405 -6.28989 224 ft 0 kts 70°
2026-05-05 11:28 53.42406 -6.28984 224 ft 1 kts 71°
2026-05-05 11:29 53.42408 -6.28964 226 ft 3 kts 80°
2026-05-05 11:29 53.42410 -6.28928 224 ft 4 kts 85°
2026-05-05 11:29 53.42409 -6.28877 224 ft 5 kts 95°
2026-05-05 11:29 53.42406 -6.28810 224 ft 7 kts 95°
2026-05-05 11:30 53.42402 -6.28726 224 ft 8 kts 95°
2026-05-05 11:30 53.42397 -6.28633 224 ft 8 kts 94°
2026-05-05 11:30 53.42392 -6.28543 224 ft 8 kts 96°
2026-05-05 11:30 53.42387 -6.28457 224 ft 7 kts 95°
2026-05-05 11:31 53.42382 -6.28373 224 ft 7 kts 95°
2026-05-05 11:31 53.42378 -6.28293 224 ft 7 kts 95°
2026-05-05 11:31 53.42374 -6.28214 224 ft 7 kts 95°
2026-05-05 11:31 53.42369 -6.28137 224 ft 7 kts 95°
2026-05-05 11:32 53.42365 -6.28062 224 ft 6 kts 95°
2026-05-05 11:32 53.42361 -6.27989 224 ft 6 kts 95°
2026-05-05 11:32 53.42356 -6.27913 224 ft 7 kts 96°
2026-05-05 11:32 53.42350 -6.27821 226 ft 10 kts 95°
2026-05-05 11:33 53.42343 -6.27682 224 ft 14 kts 95°
2026-05-05 11:33 53.42333 -6.27494 224 ft 18 kts 95°
2026-05-05 11:33 53.42319 -6.27269 224 ft 20 kts 96°
2026-05-05 11:33 53.42308 -6.27047 224 ft 19 kts 94°
2026-05-05 11:34 53.42299 -6.26833 224 ft 18 kts 95°
2026-05-05 11:34 53.42286 -6.26628 224 ft 17 kts 96°
2026-05-05 11:34 53.42275 -6.26433 224 ft 16 kts 95°
2026-05-05 11:34 53.42269 -6.26245 224 ft 16 kts 83°
2026-05-05 11:35 53.42311 -6.26083 224 ft 15 kts 52°
2026-05-05 11:35 53.42380 -6.25958 224 ft 14 kts 44°
2026-05-05 11:35 53.42427 -6.25883 224 ft 14 kts 44°
2026-05-05 11:35 53.42513 -6.25735 224 ft 13 kts 46°
2026-05-05 11:36 53.42554 -6.25665 224 ft 13 kts 45°
2026-05-05 11:36 53.42635 -6.25530 225 ft 12 kts 45°
2026-05-05 11:36 53.42693 -6.25431 228 ft 12 kts 43°
2026-05-05 11:36 53.42761 -6.25321 224 ft 16 kts 44°
2026-05-05 11:37 53.42856 -6.25280 226 ft 15 kts 337°
2026-05-05 11:37 53.42918 -6.25336 224 ft 15 kts 331°
2026-05-05 11:37 53.43007 -6.25411 224 ft 14 kts 336°
2026-05-05 11:37 53.43042 -6.25417 224 ft 3 kts 39°
2026-05-05 11:38 53.43062 -6.25368 225 ft 7 kts 65°
2026-05-05 11:38 53.43084 -6.25288 224 ft 8 kts 65°
2026-05-05 11:38 53.43103 -6.25217 224 ft 0 kts 66°